This is the latest recevied weather packets stored in our database for station/object K4GSL. If no packets are shown the sender has not sent any weather packets the latest 10 day(s).
| Time | Temp. | Humidity | Pressure | Rain* | Wind** | Luminosity | Snow |
|---|---|---|---|---|---|---|---|
| 1777942955 | 22.22° C | 64% | 1015.6 hPa | 0 mm | - | 172 W/m² | - |
| 1777942651 | 22.22° C | 64% | 1015.8 hPa | 0 mm | - | 177 W/m² | - |
| 1777942348 | 22.78° C | 64% | 1015.7 hPa | 0 mm | - | 218 W/m² | - |
| 1777942045 | 22.22° C | 64% | 1015.6 hPa | 0 mm | - | 60 W/m² | - |
| 1777941742 | 22.22° C | 63% | 1015.6 hPa | 0 mm | - | 48 W/m² | - |
| 1777941439 | 23.33° C | 62% | 1015.8 hPa | 0 mm | - | 49 W/m² | - |
| 1777941137 | 22.78° C | 63% | 1015.7 hPa | 0 mm | - | 232 W/m² | - |
| 1777940833 | 22.78° C | 62% | 1015.7 hPa | 0 mm | - | 55 W/m² | - |
| 1777940531 | 22.22° C | 63% | 1015.6 hPa | 0 mm | - | 53 W/m² | - |
| 1777940228 | 22.78° C | 61% | 1015.9 hPa | 0 mm | - | 52 W/m² | - |
| 1777939925 | 22.22° C | 62% | 1015.7 hPa | 0 mm | - | 54 W/m² | - |
| 1777939622 | 22.78° C | 62% | 1016 hPa | 0 mm | - | 55 W/m² | - |
| 1777939320 | 22.78° C | 63% | 1015.8 hPa | 0 mm | - | 58 W/m² | - |
| 1777939016 | 21.67° C | 65% | 1015.7 hPa | 0 mm | - | 58 W/m² | - |
| 1777938712 | 21.67° C | 65% | 1015.8 hPa | 0 mm | - | 58 W/m² | - |
| 1777938410 | 21.67° C | 65% | 1015.9 hPa | 0 mm | - | 58 W/m² | - |
| 1777938107 | 21.67° C | 64% | 1015.8 hPa | 0 mm | - | 62 W/m² | - |
| 1777937803 | 21.67° C | 63% | 1015.9 hPa | 0 mm | - | 508 W/m² | - |
| 1777937499 | 21.67° C | 64% | 1016.1 hPa | 0 mm | - | 72 W/m² | - |
| 1777937197 | 21.11° C | 64% | 1016.2 hPa | 0 mm | - | 75 W/m² | - |
| 1777936893 | 21.11° C | 65% | 1016 hPa | 0 mm | - | 78 W/m² | - |
| 1777936590 | 21.67° C | 63% | 1016.1 hPa | 0 mm | - | 89 W/m² | - |
| 1777936287 | 21.11° C | 64% | 1016.2 hPa | 0 mm | - | 85 W/m² | - |
| 1777935983 | 21.67° C | 63% | 1016.2 hPa | 0 mm | - | 70 W/m² | - |
| 1777935682 | 21.67° C | 64% | 1016.5 hPa | 0 mm | - | 433 W/m² | - |
* Rain latest hour (hover to see other rain measurements)
** Current wind speed in m/s (hover to see current wind gust speed)